Location: Goudie Road
(49.9333°N, 119.0750°W)
Time: 06:37:12
(UTC-08:00)

Daily predictions for brighter satellites

Satellite Brightness Start Highest point End
(mag) Time Altitude Azimuth Time Altitude Azimuth Time Altitude Azimuth
ATLAS 2AS CENTAUR R/B 3.8 16:19:50 10° NW 16:27:48 61° WSW 16:35:17 10° SSE
CSL-04 Debris 4.2 16:22:47 10° SSE 16:28:10 76° ENE 16:33:36 10° NNW
SL-16 R/B 3.4 16:23:46 10° N 16:29:43 50° WNW 16:35:39 10° SW
Cosmos 1975 3.5 16:26:06 10° N 16:29:52 35° ENE 16:33:35 10° SE
EO 1 Del DPAF 3.3 16:27:06 10° NNE 16:31:01 73° ESE 16:34:53 10° S
Cosmos 1844 Rocket 2.7 16:25:40 10° SSW 16:31:16 83° ESE 16:36:57 10° NNE
SMAP 3.6 16:28:49 10° SE 16:33:04 36° ENE 16:37:20 10° N
Ariane Rocket 3.4 16:31:12 10° S 16:36:14 69° WSW 16:41:19 10° NNW
ATLAS CENTAUR R/B 3.7 16:34:55 10° NW 16:36:54 13° N 16:38:50 10° NNE
Tiangong 1 3.6 16:35:33 10° SSW 16:37:20 15° SSE 16:39:07 10° SE
ISS -3.3 16:36:47 10° W 16:40:05 76° NNW 16:43:25 10° ENE
Cosmos 1812 3.2 16:37:20 10° SSE 16:40:57 41° E 16:44:37 10° NNE
SL-8 Rocket 4.0 16:35:14 10° N 16:41:26 89° E 16:47:36 10° S
COSMOS 2487 2.5 16:40:00 10° NNW 16:43:35 61° ENE 16:47:09 10° SSE
CZ-4 R/B 1.5 16:42:25 10° SSE 16:46:28 55° ENE 16:50:29 10° N
Meteor 1-12 Rocket 4.3 16:45:59 10° N 16:51:50 78° ENE 16:57:45 10° SSE
MOS 1 4.3 16:48:16 10° SSE 16:53:50 64° ENE 16:59:26 10° N
SPOT 3 Rocket 3.6 16:50:31 10° SSE 16:55:37 62° ENE 17:00:43 10° N
Cosmos 2366 rocket 4.0 16:49:15 10° N 16:55:39 85° E 17:01:58 10° S
AQUARIUS 4.2 16:53:45 10° SSE 16:58:10 59° ENE 17:02:37 10° N
USA 32 4.0 16:53:13 10° S 16:58:26 81° E 17:03:41 10° N
MSX 4.0 16:53:04 10° SE 16:58:33 48° ENE 17:04:03 10° N
Cosmos 1544 Rocket 4.1 16:54:39 10° NNW 16:59:06 65° W 17:03:32 10° S
Cosmos 1844 3.8 16:59:13 10° SW 17:04:46 76° WNW 17:10:23 10° NNE
COSMO-SKYMED 1 4.0 17:05:16 14° ENE 17:07:16 19° E 17:10:23 10° SE
Cosmos 2218 Rocket 4.3 17:01:18 10° NNW 17:07:35 72° W 17:13:44 10° S
Cosmos 1975 Rocket 4.3 17:05:01 10° SW 17:09:07 42° WNW 17:13:17 10° N
Radarsat 4.5 17:04:39 10° SSE 17:09:50 76° ENE 17:15:03 10° NNW
Cosmos 2297 4.2 17:04:43 10° S 17:09:57 41° ESE 17:14:37 13° NE
Cosmos 1666 3.8 17:07:39 10° NNE 17:10:48 23° ENE 17:13:57 10° SE
SJ-12 3.9 17:07:04 10° SSE 17:11:11 84° ENE 17:15:21 10° NNW
Cosmos 921 Rocket 3.7 17:11:40 10° SSE 17:15:32 34° E 17:18:23 16° NE
Cosmos 1025 Rocket 4.2 17:14:23 10° SE 17:17:49 23° E 17:19:24 19° ENE
Cosmos 2278 Rocket 2.2 17:12:24 10° SSW 17:18:04 88° ESE 17:23:45 10° NNE
Okean 1 3.3 17:14:58 10° S 17:19:02 79° E 17:23:07 10° NNE
GEOS 3 Rocket 4.1 17:17:19 13° E 17:21:34 39° NE 17:26:19 10° NNW
Cosmos 1346 Rocket 2.7 17:18:13 10° S 17:22:02 58° E 17:25:44 11° NNE
Thor Agena Rocket 3.6 17:18:23 10° NNE 17:23:36 65° ESE 17:28:50 10° S
Cosmos 1536 Rocket 3.7 17:21:17 10° SSW 17:25:46 83° WNW 17:30:17 10° N
IDEFIX/ARIANE 42P 2.7 17:21:57 10° S 17:27:09 79° WSW 17:32:22 10° NNW
Cosmos 1238 Rocket 3.2 17:24:39 10° SSW 17:27:39 49° WNW 17:31:02 10° N
Cosmos 1821 Rocket 4.0 17:22:50 10° N 17:28:47 52° ENE 17:34:42 10° SSE
Meteor 1-18 Rocket 4.5 17:23:24 10° SSW 17:29:06 76° WNW 17:34:59 10° N
CZ-2C R/B 4.5 17:24:58 10° N 17:29:19 52° WNW 17:33:40 10° SW
Cosmos 1833 Rocket 2.8 17:24:01 10° NNW 17:29:42 83° WSW 17:35:20 10° SSE
Cosmos 1500 3.7 17:28:37 10° NNW 17:32:25 61° W 17:36:14 10° S
Cosmos 2058 Rocket 4.0 17:29:50 10° NNE 17:33:37 26° ENE 17:34:11 25° E
NOSS 2-1 (E) 4.2 17:30:32 10° S 17:34:07 34° ESE 17:35:40 26° E
Cosmos 1743 2.6 17:31:24 10° N 17:35:18 72° ENE 17:39:09 10° SSE
YAOGAN 1 2.9 17:31:13 10° S 17:35:32 67° WSW 17:39:53 10° NNW
MONITOR-E 4.1 17:32:53 10° SSE 17:36:03 70° ENE 17:39:16 10° N
Cosmos 2082 Rocket 2.7 17:33:39 10° NW 17:39:15 63° WSW 17:44:51 10° SSE
Cosmos 1605 Rocket 4.4 17:33:33 10° N 17:39:25 38° ENE 17:45:09 10° SE
Meteor 2-21 Rocket 4.4 17:34:38 10° N 17:40:53 88° E 17:47:02 10° S
Meteor 2-16 Rocket 4.3 17:34:57 10° N 17:41:04 75° E 17:47:08 10° SSE
RESURS DK-1 4.2 17:43:12 10° N 17:44:52 16° NNE 17:44:52 16° NNE
CZ-2C R/B 3.4 17:42:34 10° S 17:47:31 52° W 17:52:36 10° NNW
USA 234 3.4 17:43:35 24° ENE 17:47:37 57° SE 17:54:01 10° SW
COSMOS 2441 4.4 17:43:32 10° SSE 17:48:26 86° WSW 17:53:23 10° NNW
GRACE-2 3.7 17:50:00 10° S 17:52:46 87° E 17:52:57 76° NNE
GRACE-1 3.7 17:50:25 10° S 17:53:12 89° NE 17:53:25 73° N
ERBS 2.3 17:50:31 10° NW 17:53:53 56° NNE 17:54:05 55° NE
Cosmos 2263 Rocket 4.5 17:51:14 10° WNW 17:54:01 14° NNW 17:56:50 10° N
SKYMED 2 3.7 17:53:52 31° NE 17:55:40 53° E 17:59:55 10° S
Timation 1 Rocket 4.3 17:50:29 10° SSW 17:56:24 74° ESE 18:00:09 24° NE
Cosmos 1484 Rocket 2.7 17:54:15 10° S 17:57:59 81° WSW 18:01:44 10° NNW
SL-8 R/B 3.7 17:53:14 10° WSW 17:58:00 72° S 17:59:45 38° E
Nadezhda 3 Rocket 4.0 17:55:24 10° S 18:01:38 86° W 18:08:00 10° N
Cosmos 407 Rocket 3.3 17:56:41 10° NNW 18:01:50 70° ENE 18:06:59 10° SSE
NOSS 3-4 (A) 4.0 17:57:17 10° NW 18:04:12 72° SW 18:11:32 10° SSE
NOSS 3-4 (C) 4.0 17:57:23 10° NW 18:04:18 73° SW 18:11:39 10° SSE
Intercosmos 25 3.8 18:01:10 10° NNW 18:04:18 49° W 18:07:31 10° S
Spot 2 Rocket 4.2 18:05:42 33° NE 18:05:42 33° NE 18:09:21 10° N
Meteor 1-19 Rocket 4.2 18:00:53 10° S 18:06:43 84° E 18:12:38 10° NNE
Cosmos 2056 Rocket 3.6 18:03:37 10° S 18:08:48 52° ESE 18:10:05 42° ENE
Okean 2 4.3 18:06:53 10° SSE 18:09:33 33° SE 18:09:33 33° SE
Tiangong 1 3.0 18:10:31 10° SW 18:12:41 21° S 18:12:41 21° S
Cosmos 676 Rocket 3.9 18:08:12 10° NNW 18:13:25 64° ENE 18:15:58 30° SE
Cosmos 1892 Rocket 4.4 18:10:23 10° SSE 18:13:09 34° SE 18:13:09 34° SE
NOSS 3-3 (A) 4.5 18:08:27 10° WSW 18:14:43 59° NW 18:18:43 25° NNE
NOSS 3-3 (C) 4.5 18:08:32 10° WSW 18:14:49 60° NW 18:18:48 26° NNE
Cosmos 1726 Rocket 3.4 18:11:36 10° N 18:16:05 80° E 18:20:33 10° SSE
ISS -2.7 18:13:27 10° WNW 18:16:09 52° NW 18:16:09 52° NW
Meteor 2-9 Rocket 4.1 18:11:44 10° NNW 18:17:13 83° W 18:22:33 10° S
Cosmos 1954 Rocket 4.0 18:12:36 10° NNW 18:17:44 56° ENE 18:18:28 51° E
ATLAS CENTAUR R/B 3.7 18:15:35 10° NNW 18:16:46 13° N 18:16:46 13° N
Meteor 1-15 Rocket 4.2 18:12:52 10° N 18:18:49 84° ENE 18:24:38 10° SSE
Okean 1-7 Rocket 4.1 18:16:51 10° SSW 18:21:18 60° WNW 18:24:37 17° N
Cosmos 2369 Rocket 3.9 18:16:56 10° SSE 18:18:42 18° SE 18:18:42 18° SE
Cosmos 1624 Rocket 3.9 18:16:24 10° SSW 18:21:34 71° ESE 18:22:49 50° NE
CZ-4 R/B 4.4 18:19:06 10° SW 18:21:50 17° W 18:24:35 10° NW
Cosmos 1727 Rocket 4.1 18:17:23 10° SSE 18:23:14 46° E 18:23:21 46° E
NOAA 12 4.0 18:19:12 10° SSE 18:24:28 86° ENE 18:29:46 10° NNW
CZ-3B DEB 3.0 18:22:09 10° WSW 18:27:08 75° NNW 18:32:16 34° ENE
Cosmos 1371 Rocket 4.0 18:22:15 10° SSW 18:27:39 88° WNW 18:29:40 40° NNE
Resurs 01 Rocket 3.9 18:32:01 14° N 18:32:01 14° N 18:32:37 10° N
Meteor 1-23 Rocket 4.1 18:23:28 10° S 18:29:09 82° E 18:32:13 28° NNE
Meteor 2-4 Rocket 3.5 18:24:51 10° SSW 18:30:13 87° WNW 18:33:20 26° N
Cosmos 1140 Rocket 3.8 18:26:40 10° NNW 18:30:44 46° NNE 18:30:44 46° NNE
Cosmos 1606 Rocket 4.2 18:31:14 10° NNW 18:35:39 57° W 18:40:02 10° S
Cosmos 1934 Rocket 4.4 18:33:06 10° NNW 18:39:15 65° W 18:45:27 10° S
Meteor 2-8 Rocket 4.3 18:34:26 10° S 18:40:33 90° E 18:45:22 18° N
COSMO-SKYMED 1 3.2 18:42:29 39° NNW 18:43:45 53° WNW 18:47:59 10° SSW
Cosmos 1666 4.4 18:43:03 10° NNW 18:46:33 33° W 18:50:03 10° SSW
BREEZE-M DEB (TANK) 3.7 18:29:43 10° W 18:48:07 74° N 18:49:17 59° ENE
METEOR-M 4.4 18:46:28 10° S 18:51:47 68° WSW 18:57:08 10° NNW
Cosmos 1025 Rocket 4.2 18:51:00 10° SW 18:55:11 42° WNW 18:56:20 35° NW
GEOS 3 Rocket 4.0 18:58:28 48° S 18:59:30 58° SW 19:04:35 10° NW
Cosmos 2278 Rocket 4.1 18:58:29 10° W 19:02:55 23° NW 19:05:37 17° N
Cosmos 2058 Rocket 4.4 19:07:34 10° NNW 19:11:45 39° W 19:11:45 39° W
BREEZE-M DEB (TANK) 4.0 19:21:27 10° WNW 19:24:54 43° W 19:24:54 43° W
USA 234 3.4 19:30:56 67° NNW 19:30:56 67° NNW 19:37:13 10° WSW
CZ-3B DEB 4.2 20:54:43 10° WNW 21:00:00 54° NW 21:00:00 54° NW
